2019-08-12T00:00:08.000Z,92.3
2019-08-12T00:01:08.000Z,92.3
2019-08-12T00:02:08.000Z,92.3
2019-08-12T00:03:08.000Z,92.19
2019-08-12T00:04:08.000Z,92.19
2019-08-12T00:05:08.000Z,92.19
2019-08-12T00:06:09.000Z,92.07
2019-08-12T00:07:09.000Z,91.96
2019-08-12T00:08:09.000Z,91.96
2019-08-12T00:09:09.000Z,91.85
2019-08-12T00:10:08.000Z,91.74
2019-08-12T00:11:08.000Z,91.74
2019-08-12T00:12:08.000Z,91.62
2019-08-12T00:13:08.000Z,91.62
2019-08-12T00:14:08.000Z,91.51
2019-08-12T00:15:09.000Z,91.51
2019-08-12T00:16:09.000Z,91.4
2019-08-12T00:17:09.000Z,91.4
2019-08-12T00:18:09.000Z,91.4
2019-08-12T00:19:08.000Z,91.29
2019-08-12T00:20:08.000Z,91.29
2019-08-12T00:21:08.000Z,91.18
2019-08-12T00:22:08.000Z,91.18
2019-08-12T00:23:08.000Z,91.06
2019-08-12T00:24:08.000Z,91.06
2019-08-12T00:25:09.000Z,91.06
2019-08-12T00:26:09.000Z,91.06
2019-08-12T00:27:09.000Z,90.95
2019-08-12T00:28:09.000Z,90.95
2019-08-12T00:29:08.000Z,90.84
2019-08-12T00:30:08.000Z,90.72
2019-08-12T00:31:08.000Z,90.61
2019-08-12T00:32:08.000Z,90.5
2019-08-12T00:33:08.000Z,90.5
2019-08-12T00:34:08.000Z,90.5
2019-08-12T00:35:09.000Z,90.39
2019-08-12T00:36:09.000Z,90.39
2019-08-12T00:37:09.000Z,90.39
2019-08-12T00:38:09.000Z,90.28
2019-08-12T00:39:08.000Z,90.16
2019-08-12T00:40:08.000Z,90.16
2019-08-12T00:41:08.000Z,90.05
2019-08-12T00:42:08.000Z,89.94
2019-08-12T00:43:08.000Z,89.94
2019-08-12T00:44:09.000Z,89.82
2019-08-12T00:45:09.000Z,89.82
2019-08-12T00:46:09.000Z,89.71
2019-08-12T00:47:09.000Z,89.71
2019-08-12T00:48:08.000Z,89.71
2019-08-12T00:49:08.000Z,89.71
2019-08-12T00:50:08.000Z,89.6
2019-08-12T00:51:08.000Z,89.49
2019-08-12T00:52:08.000Z,89.49
2019-08-12T00:53:09.000Z,89.38
2019-08-12T00:54:09.000Z,89.38
2019-08-12T00:55:09.000Z,89.26
2019-08-12T00:56:09.000Z,89.15
2019-08-12T00:57:09.000Z,89.15
2019-08-12T00:58:08.000Z,89.04
2019-08-12T00:59:08.000Z,89.04
2019-08-12T01:00:08.000Z,88.93
2019-08-12T01:01:08.000Z,88.93
2019-08-12T01:02:08.000Z,88.81
2019-08-12T01:03:09.000Z,88.7
2019-08-12T01:04:09.000Z,88.7
2019-08-12T01:05:09.000Z,88.59
2019-08-12T01:06:09.000Z,88.59
2019-08-12T01:07:08.000Z,88.47
2019-08-12T01:08:08.000Z,88.36
2019-08-12T01:09:08.000Z,88.36
2019-08-12T01:10:08.000Z,88.25
2019-08-12T01:11:08.000Z,88.25
2019-08-12T01:12:08.000Z,88.14
2019-08-12T01:13:09.000Z,88.14
2019-08-12T01:14:09.000Z,88.03
2019-08-12T01:15:09.000Z,88.03
2019-08-12T01:16:09.000Z,87.91
2019-08-12T01:17:08.000Z,87.8
2019-08-12T01:18:08.000Z,87.8
2019-08-12T01:19:08.000Z,87.69
2019-08-12T01:20:08.000Z,87.69
2019-08-12T01:21:08.000Z,87.57
2019-08-12T01:22:08.000Z,87.46
2019-08-12T01:23:09.000Z,87.35
2019-08-12T01:24:09.000Z,87.35
2019-08-12T01:25:09.000Z,87.24
2019-08-12T01:26:08.000Z,87.12
2019-08-12T01:27:08.000Z,87.01
2019-08-12T01:28:08.000Z,87.01
2019-08-12T01:29:08.000Z,87.01
2019-08-12T01:30:08.000Z,86.9
2019-08-12T01:31:08.000Z,86.9
2019-08-12T01:32:09.000Z,86.79
2019-08-12T01:33:09.000Z,86.68
2019-08-12T01:34:09.000Z,86.56
2019-08-12T01:35:09.000Z,86.56
2019-08-12T01:36:08.000Z,86.56
2019-08-12T01:37:08.000Z,86.34
2019-08-12T01:38:08.000Z,86.34
2019-08-12T01:39:08.000Z,86.22
2019-08-12T01:40:08.000Z,86.11
2019-08-12T01:41:08.000Z,86.11
2019-08-12T01:42:09.000Z,86.0
2019-08-12T01:43:09.000Z,85.89
2019-08-12T01:44:09.000Z,85.89
2019-08-12T01:45:09.000Z,85.89
2019-08-12T01:46:08.000Z,85.78
2019-08-12T01:47:08.000Z,85.66
2019-08-12T01:48:08.000Z,85.66
2019-08-12T01:49:08.000Z,85.55
2019-08-12T01:50:08.000Z,85.55
2019-08-12T01:51:08.000Z,85.44
2019-08-12T01:52:09.000Z,85.32
2019-08-12T01:53:09.000Z,85.32
2019-08-12T01:54:09.000Z,85.21
2019-08-12T01:55:09.000Z,85.21
2019-08-12T01:56:08.000Z,85.1
2019-08-12T01:57:08.000Z,85.1
2019-08-12T01:58:08.000Z,85.1
2019-08-12T01:59:08.000Z,84.99
2019-08-12T02:00:08.000Z,84.99
2019-08-12T02:01:08.000Z,84.99
2019-08-12T02:02:09.000Z,84.88
2019-08-12T02:03:09.000Z,84.88
2019-08-12T02:04:09.000Z,84.76
2019-08-12T02:05:08.000Z,84.76
2019-08-12T02:06:08.000Z,84.65
2019-08-12T02:07:08.000Z,84.65
2019-08-12T02:08:08.000Z,84.65
2019-08-12T02:09:08.000Z,84.54
2019-08-12T02:10:08.000Z,84.54
2019-08-12T02:11:09.000Z,84.43
2019-08-12T02:12:09.000Z,84.43
2019-08-12T02:13:09.000Z,84.31
2019-08-12T02:14:09.000Z,84.31
2019-08-12T02:15:08.000Z,84.31
2019-08-12T02:16:08.000Z,84.2
2019-08-12T02:17:08.000Z,84.2
2019-08-12T02:18:08.000Z,84.09
2019-08-12T02:19:08.000Z,84.09
2019-08-12T02:20:08.000Z,84.09
2019-08-12T02:21:09.000Z,83.97
2019-08-12T02:22:09.000Z,83.97
2019-08-12T02:23:09.000Z,83.86
2019-08-12T02:24:09.000Z,83.75
2019-08-12T02:25:08.000Z,83.64
2019-08-12T02:26:08.000Z,83.64
2019-08-12T02:27:08.000Z,83.53
2019-08-12T02:28:08.000Z,83.41
2019-08-12T02:29:08.000Z,83.3
2019-08-12T02:30:09.000Z,83.3
2019-08-12T02:31:09.000Z,83.19
2019-08-12T02:32:09.000Z,83.3
2019-08-12T02:33:09.000Z,83.19
2019-08-12T02:34:08.000Z,83.3
2019-08-12T02:35:08.000Z,83.3
2019-08-12T02:36:08.000Z,83.3
2019-08-12T02:37:08.000Z,83.19
2019-08-12T02:38:08.000Z,83.19
2019-08-12T02:39:08.000Z,83.19
2019-08-12T02:40:09.000Z,83.07
2019-08-12T02:41:09.000Z,83.07
2019-08-12T02:42:09.000Z,82.96
2019-08-12T02:43:09.000Z,82.96
2019-08-12T02:44:08.000Z,82.96
2019-08-12T02:45:08.000Z,82.85
2019-08-12T02:46:08.000Z,82.85
2019-08-12T02:47:08.000Z,82.85
2019-08-12T02:48:08.000Z,82.74
2019-08-12T02:49:09.000Z,82.62
2019-08-12T02:50:09.000Z,82.51
2019-08-12T02:51:09.000Z,82.51
2019-08-12T02:52:09.000Z,82.4
2019-08-12T02:53:09.000Z,82.4
2019-08-12T02:54:08.000Z,82.4
2019-08-12T02:55:08.000Z,82.4
2019-08-12T02:56:08.000Z,82.4
2019-08-12T02:57:08.000Z,82.4
2019-08-12T02:58:08.000Z,82.29
2019-08-12T02:59:09.000Z,82.29
2019-08-12T03:00:09.000Z,82.18
2019-08-12T03:01:09.000Z,82.18
2019-08-12T03:02:09.000Z,82.18
2019-08-12T03:03:08.000Z,82.06
2019-08-12T03:04:08.000Z,82.06
2019-08-12T03:05:08.000Z,81.95
2019-08-12T03:06:08.000Z,81.95
2019-08-12T03:07:08.000Z,81.95
2019-08-12T03:08:08.000Z,81.84
2019-08-12T03:09:09.000Z,81.84
2019-08-12T03:10:09.000Z,81.72
2019-08-12T03:11:09.000Z,81.72
2019-08-12T03:12:09.000Z,81.61
2019-08-12T03:13:08.000Z,81.61
2019-08-12T03:14:08.000Z,81.5
2019-08-12T03:15:08.000Z,81.5
2019-08-12T03:16:08.000Z,81.5
2019-08-12T03:17:08.000Z,81.39
2019-08-12T03:18:08.000Z,81.39
2019-08-12T03:19:09.000Z,81.28
2019-08-12T03:20:09.000Z,81.28
2019-08-12T03:21:09.000Z,81.28
2019-08-12T03:22:09.000Z,81.16
2019-08-12T03:23:08.000Z,81.16
2019-08-12T03:24:08.000Z,81.05
2019-08-12T03:25:08.000Z,81.05
2019-08-12T03:26:08.000Z,80.94
2019-08-12T03:27:08.000Z,80.94
2019-08-12T03:28:09.000Z,80.94
2019-08-12T03:29:09.000Z,80.94
2019-08-12T03:30:09.000Z,80.82
2019-08-12T03:31:09.000Z,80.82
2019-08-12T03:32:08.000Z,80.71
2019-08-12T03:33:08.000Z,80.71
2019-08-12T03:34:08.000Z,80.6
2019-08-12T03:35:08.000Z,80.6
2019-08-12T03:36:08.000Z,80.6
2019-08-12T03:37:08.000Z,80.49
2019-08-12T03:38:09.000Z,80.49
2019-08-12T03:39:09.000Z,80.38
2019-08-12T03:40:09.000Z,80.38
2019-08-12T03:41:09.000Z,80.26
2019-08-12T03:42:08.000Z,80.26
2019-08-12T03:43:08.000Z,80.15
2019-08-12T03:44:08.000Z,80.15
2019-08-12T03:45:08.000Z,80.04
2019-08-12T03:46:08.000Z,80.04
2019-08-12T03:47:09.000Z,80.04
2019-08-12T03:48:09.000Z,80.04
2019-08-12T03:49:09.000Z,80.04
2019-08-12T03:50:09.000Z,79.93
2019-08-12T03:51:08.000Z,79.93
2019-08-12T03:52:08.000Z,79.93
2019-08-12T03:53:08.000Z,79.81
2019-08-12T03:54:08.000Z,79.81
2019-08-12T03:55:08.000Z,79.81
2019-08-12T03:56:08.000Z,79.7
2019-08-12T03:57:09.000Z,79.59
2019-08-12T03:58:09.000Z,79.59
2019-08-12T03:59:09.000Z,79.47
2019-08-12T04:00:09.000Z,79.47
2019-08-12T04:01:08.000Z,79.47
2019-08-12T04:02:08.000Z,79.36
2019-08-12T04:03:08.000Z,79.36
2019-08-12T04:04:08.000Z,79.36
2019-08-12T04:05:08.000Z,79.25
2019-08-12T04:06:08.000Z,79.25
2019-08-12T04:07:09.000Z,79.25
2019-08-12T04:08:09.000Z,79.25
2019-08-12T04:09:09.000Z,79.25
2019-08-12T04:10:09.000Z,79.14
2019-08-12T04:11:08.000Z,79.14
2019-08-12T04:12:08.000Z,79.03
2019-08-12T04:13:08.000Z,79.03
2019-08-12T04:14:08.000Z,78.91
2019-08-12T04:15:08.000Z,78.91
2019-08-12T04:16:08.000Z,78.91
2019-08-12T04:17:09.000Z,78.8
2019-08-12T04:18:09.000Z,78.8
2019-08-12T04:19:09.000Z,78.8
2019-08-12T04:20:09.000Z,78.91
2019-08-12T04:21:08.000Z,78.8
2019-08-12T04:22:08.000Z,78.8
2019-08-12T04:23:08.000Z,78.8
2019-08-12T04:24:08.000Z,78.69
2019-08-12T04:25:08.000Z,78.69
2019-08-12T04:26:09.000Z,78.69
2019-08-12T04:27:09.000Z,78.57
2019-08-12T04:28:09.000Z,78.57
2019-08-12T04:29:09.000Z,78.57
2019-08-12T04:30:09.000Z,78.46
2019-08-12T04:31:08.000Z,78.35
2019-08-12T04:32:08.000Z,78.35
2019-08-12T04:33:08.000Z,78.35
2019-08-12T04:34:08.000Z,78.35
2019-08-12T04:35:08.000Z,78.24
2019-08-12T04:36:09.000Z,78.24
2019-08-12T04:37:09.000Z,78.12
2019-08-12T04:38:09.000Z,78.12
2019-08-12T04:39:09.000Z,78.12
2019-08-12T04:40:08.000Z,78.24
2019-08-12T04:41:08.000Z,78.24
2019-08-12T04:42:08.000Z,78.12
2019-08-12T04:43:08.000Z,78.12
2019-08-12T04:44:08.000Z,78.12
2019-08-12T04:45:09.000Z,78.12
2019-08-12T04:46:09.000Z,78.12
2019-08-12T04:47:09.000Z,78.01
2019-08-12T04:48:09.000Z,78.01
2019-08-12T04:49:09.000Z,78.01
2019-08-12T04:50:08.000Z,77.9
2019-08-12T04:51:08.000Z,77.9
2019-08-12T04:52:08.000Z,77.9
2019-08-12T04:53:08.000Z,77.9
2019-08-12T04:54:08.000Z,77.79
2019-08-12T04:55:09.000Z,77.79
2019-08-12T04:56:09.000Z,77.79
2019-08-12T04:57:09.000Z,77.68
2019-08-12T04:58:09.000Z,77.68
2019-08-12T04:59:09.000Z,77.68
2019-08-12T05:00:08.000Z,77.68
2019-08-12T05:01:08.000Z,77.56
2019-08-12T05:02:08.000Z,77.56
2019-08-12T05:03:08.000Z,77.56
2019-08-12T05:04:08.000Z,77.56
2019-08-12T05:05:09.000Z,77.45
2019-08-12T05:06:09.000Z,77.34
2019-08-12T05:07:09.000Z,77.22
2019-08-12T05:08:09.000Z,77.22
2019-08-12T05:09:09.000Z,77.11
2019-08-12T05:10:08.000Z,77.11
2019-08-12T05:11:08.000Z,77.22
2019-08-12T05:12:09.000Z,77.22
2019-08-12T05:13:09.000Z,77.22
2019-08-12T05:14:09.000Z,77.22
2019-08-12T05:15:08.000Z,77.22
2019-08-12T05:16:08.000Z,77.11
2019-08-12T05:17:08.000Z,77.11
2019-08-12T05:18:08.000Z,77.11
2019-08-12T05:19:09.000Z,77.11
2019-08-12T05:20:08.000Z,77.0
2019-08-12T05:21:08.000Z,77.0
2019-08-12T05:22:08.000Z,76.89
2019-08-12T05:23:08.000Z,76.89
2019-08-12T05:24:08.000Z,76.78
2019-08-12T05:25:08.000Z,76.78
2019-08-12T05:26:08.000Z,76.78
2019-08-12T05:27:08.000Z,76.78
2019-08-12T05:28:08.000Z,76.66
2019-08-12T05:29:08.000Z,76.66
2019-08-12T05:30:08.000Z,76.66
2019-08-12T05:31:08.000Z,76.66
2019-08-12T05:32:09.000Z,76.66
2019-08-12T05:33:09.000Z,76.66
2019-08-12T05:34:09.000Z,76.55
2019-08-12T05:35:09.000Z,76.55
2019-08-12T05:36:08.000Z,76.55
2019-08-12T05:37:08.000Z,76.55
2019-08-12T05:38:09.000Z,76.44
2019-08-12T05:39:09.000Z,76.44
2019-08-12T05:40:09.000Z,76.44
2019-08-12T05:41:08.000Z,76.44
2019-08-12T05:42:08.000Z,76.32
2019-08-12T05:43:08.000Z,76.32
2019-08-12T05:44:08.000Z,76.32
2019-08-12T05:45:08.000Z,76.32
2019-08-12T05:46:08.000Z,76.32
2019-08-12T05:47:08.000Z,76.32
2019-08-12T05:48:08.000Z,76.21
2019-08-12T05:49:09.000Z,76.1
2019-08-12T05:50:08.000Z,76.1
2019-08-12T05:51:09.000Z,76.1
2019-08-12T05:52:09.000Z,76.1
2019-08-12T05:53:08.000Z,75.99
2019-08-12T05:54:09.000Z,75.88
2019-08-12T05:55:08.000Z,75.76
2019-08-12T05:56:08.000Z,75.76
2019-08-12T05:57:08.000Z,75.65
2019-08-12T05:58:09.000Z,75.76
2019-08-12T05:59:09.000Z,75.76
2019-08-12T06:00:09.000Z,75.76
2019-08-12T06:01:09.000Z,75.54
2019-08-12T06:02:09.000Z,75.54
2019-08-12T06:03:09.000Z,75.65
2019-08-12T06:04:10.000Z,75.65
2019-08-12T06:05:10.000Z,75.54
2019-08-12T06:06:08.000Z,75.31
2019-08-12T06:07:08.000Z,75.2
2019-08-12T06:08:08.000Z,75.31
2019-08-12T06:09:08.000Z,75.2
2019-08-12T06:10:08.000Z,75.31
2019-08-12T06:11:08.000Z,75.31
2019-08-12T06:12:08.000Z,75.31
2019-08-12T06:13:08.000Z,75.54
2019-08-12T06:14:08.000Z,75.43
2019-08-12T06:15:08.000Z,75.43
2019-08-12T06:16:09.000Z,75.43
2019-08-12T06:17:09.000Z,75.2
2019-08-12T06:18:09.000Z,75.2
2019-08-12T06:19:09.000Z,75.2
2019-08-12T06:20:08.000Z,75.2
2019-08-12T06:21:08.000Z,75.2
2019-08-12T06:22:08.000Z,75.31
2019-08-12T06:23:08.000Z,75.31
2019-08-12T06:24:08.000Z,75.2
2019-08-12T06:25:08.000Z,75.31
2019-08-12T06:26:09.000Z,75.2
2019-08-12T06:27:09.000Z,75.2
2019-08-12T06:28:09.000Z,75.2
2019-08-12T06:29:09.000Z,75.2
2019-08-12T06:30:08.000Z,75.2
2019-08-12T06:31:08.000Z,75.31
2019-08-12T06:32:08.000Z,75.09
2019-08-12T06:33:08.000Z,75.09
2019-08-12T06:34:08.000Z,75.09
2019-08-12T06:35:08.000Z,75.09
2019-08-12T06:36:09.000Z,75.09
2019-08-12T06:37:09.000Z,75.09
2019-08-12T06:38:09.000Z,74.97
2019-08-12T06:39:09.000Z,74.97
2019-08-12T06:40:08.000Z,75.09
2019-08-12T06:41:08.000Z,74.86
2019-08-12T06:42:08.000Z,74.86
2019-08-12T06:43:08.000Z,74.75
2019-08-12T06:44:08.000Z,74.86
2019-08-12T06:45:09.000Z,74.86
2019-08-12T06:46:09.000Z,74.86
2019-08-12T06:47:09.000Z,74.75
2019-08-12T06:48:09.000Z,74.75
2019-08-12T06:49:08.000Z,74.53
2019-08-12T06:50:08.000Z,74.53
2019-08-12T06:51:08.000Z,74.41
2019-08-12T06:52:08.000Z,74.53
2019-08-12T06:53:08.000Z,74.41
2019-08-12T06:54:08.000Z,74.41
2019-08-12T06:55:09.000Z,74.41
2019-08-12T06:56:09.000Z,74.41
2019-08-12T06:57:09.000Z,74.41
2019-08-12T06:58:09.000Z,74.41
2019-08-12T06:59:08.000Z,74.41
2019-08-12T07:00:08.000Z,74.3
2019-08-12T07:01:08.000Z,74.41
2019-08-12T07:02:08.000Z,74.3
2019-08-12T07:03:08.000Z,74.3
2019-08-12T07:04:08.000Z,74.41
2019-08-12T07:05:09.000Z,74.41
2019-08-12T07:06:09.000Z,74.41
2019-08-12T07:07:09.000Z,74.3
2019-08-12T07:08:09.000Z,74.3
2019-08-12T07:09:08.000Z,74.41
2019-08-12T07:10:08.000Z,74.3
2019-08-12T07:11:08.000Z,74.3
2019-08-12T07:12:08.000Z,74.3
2019-08-12T07:13:08.000Z,74.41
2019-08-12T07:14:08.000Z,74.3
2019-08-12T07:15:09.000Z,74.3
2019-08-12T07:16:09.000Z,74.3
2019-08-12T07:17:09.000Z,74.3
2019-08-12T07:18:09.000Z,74.19
2019-08-12T07:19:08.000Z,74.19
2019-08-12T07:20:08.000Z,74.19
2019-08-12T07:21:08.000Z,74.19
2019-08-12T07:22:08.000Z,74.19
2019-08-12T07:23:08.000Z,74.19
2019-08-12T07:24:09.000Z,74.07
2019-08-12T07:25:09.000Z,74.07
2019-08-12T07:26:09.000Z,74.07
2019-08-12T07:27:09.000Z,74.07
2019-08-12T07:28:09.000Z,74.07
2019-08-12T07:29:08.000Z,73.96
2019-08-12T07:30:08.000Z,74.07
2019-08-12T07:31:08.000Z,73.96
2019-08-12T07:32:08.000Z,73.96
2019-08-12T07:33:08.000Z,73.96
2019-08-12T07:34:09.000Z,73.96
2019-08-12T07:35:09.000Z,73.96
2019-08-12T07:36:09.000Z,73.96
2019-08-12T07:37:09.000Z,73.85
2019-08-12T07:38:08.000Z,73.85
2019-08-12T07:39:08.000Z,73.85
2019-08-12T07:40:08.000Z,73.85
2019-08-12T07:41:08.000Z,73.74
2019-08-12T07:42:08.000Z,73.85
2019-08-12T07:43:09.000Z,73.85
2019-08-12T07:44:09.000Z,73.85
2019-08-12T07:45:09.000Z,73.74
2019-08-12T07:46:09.000Z,73.74
2019-08-12T07:47:09.000Z,73.74
2019-08-12T07:48:08.000Z,73.74
2019-08-12T07:49:08.000Z,73.74
2019-08-12T07:50:08.000Z,73.74
2019-08-12T07:51:08.000Z,73.74
2019-08-12T07:52:08.000Z,73.74
2019-08-12T07:53:09.000Z,73.62
2019-08-12T07:54:09.000Z,73.62
2019-08-12T07:55:09.000Z,73.62
2019-08-12T07:56:09.000Z,73.62
2019-08-12T07:57:08.000Z,73.62
2019-08-12T07:58:08.000Z,73.62
2019-08-12T07:59:08.000Z,73.51
2019-08-12T08:00:08.000Z,73.51
2019-08-12T08:01:08.000Z,73.51
2019-08-12T08:02:08.000Z,73.51
2019-08-12T08:03:09.000Z,73.51
2019-08-12T08:04:09.000Z,73.51
2019-08-12T08:05:09.000Z,73.51
2019-08-12T08:06:09.000Z,73.51
2019-08-12T08:07:08.000Z,73.4
2019-08-12T08:08:08.000Z,73.4
2019-08-12T08:09:08.000Z,73.4
2019-08-12T08:10:08.000Z,73.4
2019-08-12T08:11:08.000Z,73.4
2019-08-12T08:12:09.000Z,73.4
2019-08-12T08:13:09.000Z,73.29
2019-08-12T08:14:09.000Z,73.29
2019-08-12T08:15:09.000Z,73.29
2019-08-12T08:16:09.000Z,73.29
2019-08-12T08:17:08.000Z,73.29
2019-08-12T08:18:08.000Z,73.18
2019-08-12T08:19:08.000Z,73.18
2019-08-12T08:20:08.000Z,73.18
2019-08-12T08:21:08.000Z,73.29
2019-08-12T08:22:08.000Z,73.18
2019-08-12T08:23:09.000Z,73.18
2019-08-12T08:24:09.000Z,73.18
2019-08-12T08:25:09.000Z,73.18
2019-08-12T08:26:09.000Z,73.06
2019-08-12T08:27:08.000Z,73.06
2019-08-12T08:28:08.000Z,73.06
2019-08-12T08:29:08.000Z,73.06
2019-08-12T08:30:08.000Z,73.06
2019-08-12T08:31:08.000Z,73.06
2019-08-12T08:32:09.000Z,73.06
2019-08-12T08:33:09.000Z,73.06
2019-08-12T08:34:09.000Z,72.95
2019-08-12T08:35:09.000Z,72.95
2019-08-12T08:36:08.000Z,72.95
2019-08-12T08:37:08.000Z,72.95
2019-08-12T08:38:08.000Z,72.95
2019-08-12T08:39:08.000Z,72.95
2019-08-12T08:40:08.000Z,72.84
2019-08-12T08:41:08.000Z,72.84
2019-08-12T08:42:09.000Z,72.84
2019-08-12T08:43:09.000Z,72.84
2019-08-12T08:44:09.000Z,72.72
2019-08-12T08:45:09.000Z,72.72
2019-08-12T08:46:08.000Z,72.84
2019-08-12T08:47:08.000Z,72.72
2019-08-12T08:48:08.000Z,72.72
2019-08-12T08:49:08.000Z,72.72
2019-08-12T08:50:08.000Z,72.72
2019-08-12T08:51:08.000Z,72.72
2019-08-12T08:52:09.000Z,72.72
2019-08-12T08:53:09.000Z,72.61
2019-08-12T08:54:09.000Z,72.61
2019-08-12T08:55:09.000Z,72.61
2019-08-12T08:56:08.000Z,72.61
2019-08-12T08:57:08.000Z,72.61
2019-08-12T08:58:08.000Z,72.61
2019-08-12T08:59:08.000Z,72.61
2019-08-12T09:00:08.000Z,72.61
2019-08-12T09:01:09.000Z,72.5
2019-08-12T09:02:09.000Z,72.5
2019-08-12T09:03:09.000Z,72.5
2019-08-12T09:04:09.000Z,72.5
2019-08-12T09:05:08.000Z,72.5
2019-08-12T09:06:08.000Z,72.5
2019-08-12T09:07:08.000Z,72.39
2019-08-12T09:08:08.000Z,72.39
2019-08-12T09:09:08.000Z,72.39
2019-08-12T09:10:08.000Z,72.39
2019-08-12T09:11:09.000Z,72.39
2019-08-12T09:12:09.000Z,72.39
2019-08-12T09:13:09.000Z,72.39
2019-08-12T09:14:09.000Z,72.39
2019-08-12T09:15:09.000Z,72.39
2019-08-12T09:16:08.000Z,72.28
2019-08-12T09:17:08.000Z,72.39
2019-08-12T09:18:08.000Z,72.28
2019-08-12T09:19:08.000Z,72.28
2019-08-12T09:20:08.000Z,72.28
2019-08-12T09:21:09.000Z,72.28
2019-08-12T09:22:09.000Z,72.28
2019-08-12T09:23:09.000Z,72.28
2019-08-12T09:24:09.000Z,72.28
2019-08-12T09:25:08.000Z,72.28
2019-08-12T09:26:08.000Z,72.28
2019-08-12T09:27:08.000Z,72.28
2019-08-12T09:28:08.000Z,72.28
2019-08-12T09:29:08.000Z,72.28
2019-08-12T09:30:08.000Z,72.16
2019-08-12T09:31:09.000Z,72.16
2019-08-12T09:32:09.000Z,72.16
2019-08-12T09:33:09.000Z,72.16
2019-08-12T09:34:09.000Z,72.16
2019-08-12T09:35:08.000Z,72.16
2019-08-12T09:36:08.000Z,72.16
2019-08-12T09:37:08.000Z,72.16
2019-08-12T09:38:08.000Z,72.16
2019-08-12T09:39:08.000Z,72.16
2019-08-12T09:40:09.000Z,72.16
2019-08-12T09:41:09.000Z,72.16
2019-08-12T09:42:09.000Z,72.05
2019-08-12T09:43:09.000Z,72.16
2019-08-12T09:44:08.000Z,72.05
2019-08-12T09:45:08.000Z,72.05
2019-08-12T09:46:08.000Z,72.05
2019-08-12T09:47:08.000Z,72.05
2019-08-12T09:48:08.000Z,72.05
2019-08-12T09:49:08.000Z,72.05
2019-08-12T09:50:09.000Z,72.05
2019-08-12T09:51:09.000Z,72.05
2019-08-12T09:52:09.000Z,72.05
2019-08-12T09:53:09.000Z,72.05
2019-08-12T09:54:08.000Z,72.05
2019-08-12T09:55:08.000Z,72.05
2019-08-12T09:56:08.000Z,72.05
2019-08-12T09:57:08.000Z,72.05
2019-08-12T09:58:08.000Z,71.94
2019-08-12T09:59:08.000Z,72.05
2019-08-12T10:00:09.000Z,71.94
2019-08-12T10:01:09.000Z,71.94
2019-08-12T10:02:09.000Z,71.94
2019-08-12T10:03:09.000Z,71.94
2019-08-12T10:04:08.000Z,71.94
2019-08-12T10:05:08.000Z,71.94
2019-08-12T10:06:08.000Z,71.94
2019-08-12T10:07:08.000Z,71.94
2019-08-12T10:08:08.000Z,71.94
2019-08-12T10:09:08.000Z,71.94
2019-08-12T10:10:09.000Z,71.94
2019-08-12T10:11:09.000Z,71.82
2019-08-12T10:12:09.000Z,71.94
2019-08-12T10:13:09.000Z,71.82
2019-08-12T10:14:08.000Z,71.82
2019-08-12T10:15:08.000Z,71.82
2019-08-12T10:16:08.000Z,71.82
2019-08-12T10:17:08.000Z,71.82
2019-08-12T10:18:08.000Z,71.82
2019-08-12T10:19:09.000Z,71.82
2019-08-12T10:20:09.000Z,71.82
2019-08-12T10:21:09.000Z,71.71
2019-08-12T10:22:09.000Z,71.82
2019-08-12T10:23:09.000Z,71.71
2019-08-12T10:24:08.000Z,71.71
2019-08-12T10:25:08.000Z,71.71
2019-08-12T10:26:08.000Z,71.71
2019-08-12T10:27:08.000Z,71.71
2019-08-12T10:28:08.000Z,71.71
2019-08-12T10:29:09.000Z,71.71
2019-08-12T10:30:09.000Z,71.71
2019-08-12T10:31:09.000Z,71.71
2019-08-12T10:32:09.000Z,71.71
2019-08-12T10:33:09.000Z,71.71
2019-08-12T10:34:08.000Z,71.71
2019-08-12T10:35:08.000Z,71.71
2019-08-12T10:36:08.000Z,71.71
2019-08-12T10:37:08.000Z,71.71
2019-08-12T10:38:08.000Z,71.71
2019-08-12T10:39:09.000Z,71.71
2019-08-12T10:40:09.000Z,71.71
2019-08-12T10:41:09.000Z,71.71
2019-08-12T10:42:09.000Z,71.71
2019-08-12T10:43:08.000Z,71.71
2019-08-12T10:44:08.000Z,71.71
2019-08-12T10:45:08.000Z,71.71
2019-08-12T10:46:08.000Z,71.71
2019-08-12T10:47:08.000Z,71.71
2019-08-12T10:48:08.000Z,71.71
2019-08-12T10:49:09.000Z,71.71
2019-08-12T10:50:09.000Z,71.71
2019-08-12T10:51:09.000Z,71.71
2019-08-12T10:52:09.000Z,71.71
2019-08-12T10:53:08.000Z,71.71
2019-08-12T10:54:08.000Z,71.71
2019-08-12T10:55:08.000Z,71.71
2019-08-12T10:56:08.000Z,71.71
2019-08-12T10:57:08.000Z,71.82
2019-08-12T10:58:09.000Z,71.71
2019-08-12T10:59:09.000Z,71.71
2019-08-12T11:00:09.000Z,71.71
2019-08-12T11:01:09.000Z,71.82
2019-08-12T11:02:08.000Z,71.71
2019-08-12T11:03:08.000Z,71.82
2019-08-12T11:04:08.000Z,71.71
2019-08-12T11:05:08.000Z,71.71
2019-08-12T11:06:08.000Z,71.71
2019-08-12T11:07:08.000Z,71.82
2019-08-12T11:08:09.000Z,71.82
2019-08-12T11:09:09.000Z,71.82
2019-08-12T11:10:09.000Z,71.82
2019-08-12T11:11:09.000Z,71.82
2019-08-12T11:12:08.000Z,71.82
2019-08-12T11:13:08.000Z,71.82
2019-08-12T11:14:08.000Z,71.82
2019-08-12T11:15:08.000Z,71.82
2019-08-12T11:16:08.000Z,71.82
2019-08-12T11:17:08.000Z,71.82
2019-08-12T11:18:09.000Z,71.82
2019-08-12T11:19:09.000Z,71.82
2019-08-12T11:20:09.000Z,71.82
2019-08-12T11:21:09.000Z,71.82
2019-08-12T11:22:08.000Z,71.82
2019-08-12T11:23:08.000Z,71.82
2019-08-12T11:24:08.000Z,71.82
2019-08-12T11:25:08.000Z,71.82
2019-08-12T11:26:08.000Z,71.82
2019-08-12T11:27:09.000Z,71.82
2019-08-12T11:28:09.000Z,71.82
2019-08-12T11:29:09.000Z,71.82
2019-08-12T11:30:09.000Z,71.94
2019-08-12T11:31:08.000Z,71.82
2019-08-12T11:32:08.000Z,71.82
2019-08-12T11:33:08.000Z,71.82
2019-08-12T11:34:08.000Z,71.82
2019-08-12T11:35:08.000Z,71.82
2019-08-12T11:36:08.000Z,71.94
2019-08-12T11:37:09.000Z,71.82
2019-08-12T11:38:09.000Z,71.82
2019-08-12T11:39:09.000Z,71.94
2019-08-12T11:40:09.000Z,71.82
2019-08-12T11:41:08.000Z,71.82
2019-08-12T11:42:08.000Z,71.82
2019-08-12T11:43:08.000Z,71.82
2019-08-12T11:44:08.000Z,71.82
2019-08-12T11:45:08.000Z,71.82
2019-08-12T11:46:08.000Z,71.94
2019-08-12T11:47:09.000Z,71.82
2019-08-12T11:48:09.000Z,71.82
2019-08-12T11:49:09.000Z,71.82
2019-08-12T11:50:09.000Z,71.82
2019-08-12T11:51:08.000Z,71.94
2019-08-12T11:52:08.000Z,71.94
2019-08-12T11:53:08.000Z,71.82
2019-08-12T11:54:08.000Z,71.82
2019-08-12T11:55:08.000Z,71.82
2019-08-12T11:56:09.000Z,71.94
2019-08-12T11:57:09.000Z,71.82
2019-08-12T11:58:09.000Z,71.82
2019-08-12T11:59:09.000Z,71.82
2019-08-12T12:00:09.000Z,71.82
2019-08-12T12:01:08.000Z,71.82
2019-08-12T12:02:08.000Z,71.94
2019-08-12T12:03:08.000Z,71.94
2019-08-12T12:04:08.000Z,71.94
2019-08-12T12:05:08.000Z,71.94
2019-08-12T12:06:08.000Z,71.94
2019-08-12T12:07:09.000Z,71.94
2019-08-12T12:08:09.000Z,71.94
2019-08-12T12:09:09.000Z,71.94
2019-08-12T12:10:09.000Z,71.94
2019-08-12T12:11:08.000Z,71.94
2019-08-12T12:12:08.000Z,71.94
2019-08-12T12:13:08.000Z,71.94
2019-08-12T12:14:08.000Z,71.94
2019-08-12T12:15:08.000Z,71.94
2019-08-12T12:16:08.000Z,71.94
2019-08-12T12:17:09.000Z,71.94
2019-08-12T12:18:09.000Z,71.94
2019-08-12T12:19:09.000Z,71.94
2019-08-12T12:20:09.000Z,71.94
2019-08-12T12:21:08.000Z,71.94
2019-08-12T12:22:08.000Z,71.94
2019-08-12T12:23:08.000Z,71.94
2019-08-12T12:24:08.000Z,71.94
2019-08-12T12:25:08.000Z,71.94
2019-08-12T12:26:08.000Z,71.94
2019-08-12T12:27:09.000Z,71.94
2019-08-12T12:28:09.000Z,71.94
2019-08-12T12:29:09.000Z,71.94
2019-08-12T12:30:09.000Z,71.94
2019-08-12T12:31:08.000Z,71.94
2019-08-12T12:32:08.000Z,71.94
2019-08-12T12:33:08.000Z,71.94
2019-08-12T12:34:08.000Z,71.94
2019-08-12T12:35:08.000Z,71.94
2019-08-12T12:36:09.000Z,71.94
2019-08-12T12:37:09.000Z,71.94
2019-08-12T12:38:09.000Z,71.94
2019-08-12T12:39:09.000Z,71.94
2019-08-12T12:40:08.000Z,71.94
2019-08-12T12:41:08.000Z,71.94
2019-08-12T12:42:08.000Z,71.94
2019-08-12T12:43:08.000Z,71.94
2019-08-12T12:44:08.000Z,71.94
2019-08-12T12:45:08.000Z,71.94
2019-08-12T12:46:09.000Z,71.94
2019-08-12T12:47:09.000Z,71.94
2019-08-12T12:48:09.000Z,71.94
2019-08-12T12:49:09.000Z,71.94
2019-08-12T12:50:08.000Z,71.94
2019-08-12T12:51:08.000Z,71.94
2019-08-12T12:52:08.000Z,71.94
2019-08-12T12:53:08.000Z,71.94
2019-08-12T12:54:08.000Z,71.94
2019-08-12T12:55:08.000Z,71.94
2019-08-12T12:56:09.000Z,71.94